sat.trackr.live / text

‹ back to catalog

ONEWEB-0490

NORAD 54113 · 2022-138A

PAYLOAD ACTIVE UNKNOWN

§ Identity

Operator
Country
UK
Launch date
2022-10-22
Launch site
SRILR
Launch vehicle
Mass (kg)
RCS (m²)

Purposes: comms

External: N2YO · Heavens-Above · Gunter

§ Orbital elements

Epoch: 2026-05-25T03:53:25.243008Z

Period
109.11 min
Inclination
87.9159°
Eccentricity
0.0001663
Mean motion
13.19726843 rev/d
Perigee alt
1,184.5 km
Apogee alt
1,187.0 km
Semi-major
7,563.9 km
B*
3.2614e-4
RAAN
309.5553°
Arg perigee
89.3613°
Mean anomaly
270.7710°
Rev number
17,379

§ Raw data

ONEWEB-04901 54113U 22138A   26145.16209772  .00000144  00000+0  32614-3 0  99992 54113  87.9159 309.5553 0001663  89.3613 270.7710 13.19726843173796

JSON: /api/v1/satellites/54113 · /tle

For live sub-satellite position, see the globe view (requires WebGL).

§ Visibility from observer

Set your observer location to see the next 7 days of passes ≥ 10°. The values pass through the URL so the page stays shareable.

No JS? Fill the form by hand. The geolocation button needs JavaScript.